When you browse on this site, cookies collect data to enhance your experience and personalize the content and advertising you see.
Visit our Privacy Policy to learn more. By continuing to use the site, you agree to this use of cookies and data.
  • In Czech Republic
  • List of Countries
  • For 7 days
  • Water Temperature
  • Satellite Maps
  • Weather Map
  • Weather Widgets
  • user-avatar
    Login

    Hourly Weather Campeche

    Today, 18 June, Tuesday

    Time Temperature Precipitation Wind Pressure Humidity
    00:00 +28°C° 0 mm 2 mps 757 mmHg 74%
    01:00 +28°C° 0 mm 2 mps 757 mmHg 79%
    02:00 +27°C° 0 mm 2 mps 756 mmHg 83%
    03:00 +27°C° 0 mm 2 mps 756 mmHg 88%
    04:00 +27°C° 0 mm 2 mps 756 mmHg 88%
    05:00 +27°C° 0 mm 2 mps 757 mmHg 88%
    06:00 +27°C° 0 mm 1 mps 757 mmHg 85%
    07:00 +29°C° 0 mm 2 mps 757 mmHg 76%
    08:00 +32°C° 0 mm 2 mps 757 mmHg 66%
    09:00 +35°C° 0 mm 2 mps 757 mmHg 57%
    10:00 +37°C° 0 mm 2 mps 757 mmHg 50%
    11:00 +39°C° 0 mm 3 mps 757 mmHg 44%
    12:00 +42°C° 0 mm 3 mps 757 mmHg 37%
    13:00 +41°C° 0 mm 2 mps 756 mmHg 35%
    14:00 +42°C° 0 mm 2 mps 755 mmHg 33%
    15:00 +42°C° 0 mm 2 mps 755 mmHg 30%
    16:00 +40°C° 0 mm 2 mps 755 mmHg 36%
    17:00 +38°C° 0 mm 2 mps 755 mmHg 42%
    18:00 +36°C° 0 mm 1 mps 755 mmHg 48%
    19:00 +34°C° 0 mm 1 mps 756 mmHg 54%
    20:00 +32°C° 0 mm 1 mps 756 mmHg 60%
    21:00 +30°C° 0 mm 1 mps 757 mmHg 67%
    22:00 +30°C° 0 mm 2 mps 757 mmHg 69%
    23:00 +29°C° 0 mm 2 mps 757 mmHg 71%

    Tomorrow, 19 June, Wednesday

    Time Temperature Precipitation Wind Pressure Humidity
    00:00 +28°C° 0 mm 2 mps 757 mmHg 74%
    01:00 +28°C° 0 mm 2 mps 757 mmHg 78%
    02:00 +27°C° 0 mm 2 mps 757 mmHg 82%
    03:00 +27°C° 0 mm 1 mps 757 mmHg 87%
    04:00 +27°C° 0 mm 1 mps 757 mmHg 88%
    05:00 +27°C° 0 mm 1 mps 757 mmHg 89%
    06:00 +27°C° 0 mm 1 mps 757 mmHg 90%
    07:00 +29°C° 0 mm 2 mps 757 mmHg 79%
    08:00 +32°C° 0 mm 2 mps 757 mmHg 69%
    09:00 +35°C° 0 mm 3 mps 757 mmHg 59%
    10:00 +37°C° 0 mm 3 mps 757 mmHg 51%
    11:00 +39°C° 0 mm 3 mps 757 mmHg 44%
    12:00 +41°C° 0 mm 2 mps 756 mmHg 37%
    13:00 +41°C° 0 mm 2 mps 755 mmHg 36%
    14:00 +41°C° 0 mm 2 mps 755 mmHg 36%
    15:00 +41°C° 0 mm 2 mps 754 mmHg 35%
    16:00 +40°C° 0 mm 2 mps 754 mmHg 39%
    17:00 +38°C° 0 mm 2 mps 754 mmHg 44%
    18:00 +37°C° 0 mm 2 mps 754 mmHg 48%
    19:00 +36°C° 0 mm 2 mps 755 mmHg 53%
    20:00 +34°C° 0 mm 2 mps 756 mmHg 58%
    21:00 +33°C° 0 mm 3 mps 756 mmHg 63%
    22:00 +31°C° 0 mm 3 mps 756 mmHg 68%
    23:00 +30°C° 0 mm 3 mps 757 mmHg 72%

    Day after tomorrow, 20 June, Thursday

    Time Temperature Precipitation Wind Pressure Humidity
    00:00 +29°C° 0 mm 3 mps 757 mmHg 76%
    01:00 +29°C° 0 mm 2 mps 757 mmHg 79%
    02:00 +28°C° 0 mm 2 mps 757 mmHg 82%
    03:00 +28°C° 0 mm 2 mps 756 mmHg 85%
    04:00 +28°C° 0 mm 2 mps 756 mmHg 84%
    05:00 +28°C° 0 mm 2 mps 757 mmHg 84%
    06:00 +27°C° 0 mm 2 mps 757 mmHg 83%
    07:00 +29°C° 0 mm 2 mps 757 mmHg 74%
    08:00 +31°C° 0 mm 3 mps 757 mmHg 65%
    09:00 +34°C° 0 mm 3 mps 758 mmHg 56%
    10:00 +36°C° 0 mm 3 mps 757 mmHg 51%
    11:00 +37°C° 0 mm 3 mps 757 mmHg 45%
    12:00 +39°C° 0 mm 3 mps 756 mmHg 40%
    13:00 +40°C° 0 mm 3 mps 756 mmHg 37%
    14:00 +40°C° 0 mm 3 mps 755 mmHg 35%
    15:00 +42°C° 0 mm 3 mps 754 mmHg 33%
    16:00 +40°C° 0 mm 3 mps 755 mmHg 35%
    17:00 +39°C° 0 mm 3 mps 755 mmHg 38%
    18:00 +38°C° 0 mm 3 mps 755 mmHg 40%
    19:00 +36°C° 0 mm 3 mps 756 mmHg 46%
    20:00 +35°C° 0 mm 3 mps 756 mmHg 53%
    21:00 +33°C° 0 mm 3 mps 757 mmHg 59%
    22:00 +31°C° 0 mm 3 mps 757 mmHg 65%
    23:00 +30°C° 0 mm 2 mps 757 mmHg 71%

    21 June, Friday

    Time Temperature Precipitation Wind Pressure Humidity
    00:00 +28°C° 0 mm 2 mps 758 mmHg 76%
    01:00 +28°C° 0 mm 2 mps 757 mmHg 79%
    02:00 +27°C° 0 mm 1 mps 757 mmHg 82%
    03:00 +27°C° 0 mm 1 mps 757 mmHg 85%
    04:00 +27°C° 0 mm 1 mps 757 mmHg 85%
    05:00 +27°C° 0 mm 1 mps 757 mmHg 86%
    06:00 +27°C° 0 mm 1 mps 758 mmHg 86%
    07:00 +29°C° 0 mm 2 mps 758 mmHg 75%
    08:00 +33°C° 0 mm 3 mps 758 mmHg 63%
    09:00 +35°C° 0 mm 3 mps 759 mmHg 52%
    10:00 +37°C° 0 mm 4 mps 758 mmHg 46%
    11:00 +40°C° 0 mm 4 mps 757 mmHg 40%
    12:00 +42°C° 0 mm 4 mps 757 mmHg 33%
    13:00 +42°C° 0 mm 4 mps 756 mmHg 32%
    14:00 +43°C° 0 mm 4 mps 756 mmHg 30%
    15:00 +43°C° 0 mm 4 mps 755 mmHg 28%
    16:00 +42°C° 0 mm 4 mps 755 mmHg 31%
    17:00 +40°C° 0 mm 3 mps 756 mmHg 34%
    18:00 +39°C° 0 mm 2 mps 756 mmHg 37%
    19:00 +37°C° 0 mm 2 mps 757 mmHg 44%
    20:00 +35°C° 0 mm 3 mps 757 mmHg 50%
    21:00 +33°C° 0 mm 3 mps 758 mmHg 56%
    22:00 +31°C° 0 mm 2 mps 758 mmHg 62%
    23:00 +30°C° 0 mm 2 mps 758 mmHg 68%

    22 June, Saturday

    Time Temperature Precipitation Wind Pressure Humidity
    00:00 +29°C° 0 mm 2 mps 758 mmHg 74%
    01:00 +29°C° 0 mm 2 mps 758 mmHg 77%
    02:00 +28°C° 0 mm 2 mps 758 mmHg 79%
    03:00 +28°C° 0 mm 2 mps 757 mmHg 81%
    04:00 +28°C° 0 mm 2 mps 757 mmHg 81%
    05:00 +28°C° 0 mm 2 mps 758 mmHg 81%
    06:00 +28°C° 0 mm 2 mps 758 mmHg 81%
    07:00 +30°C° 0 mm 2 mps 758 mmHg 74%
    08:00 +31°C° 0 mm 3 mps 758 mmHg 67%
    09:00 +34°C° 0 mm 3 mps 759 mmHg 60%
    10:00 +35°C° 0 mm 3 mps 758 mmHg 56%
    11:00 +36°C° 0 mm 3 mps 758 mmHg 52%
    12:00 +37°C° 0 mm 3 mps 758 mmHg 47%
    13:00 +39°C° 0 mm 3 mps 757 mmHg 42%
    14:00 +40°C° 0 mm 3 mps 756 mmHg 37%
    15:00 +42°C° 0 mm 4 mps 755 mmHg 32%
    16:00 +42°C° 0 mm 3 mps 756 mmHg 32%
    17:00 +40°C° 0 mm 3 mps 756 mmHg 32%
    18:00 +39°C° 0 mm 3 mps 756 mmHg 33%
    19:00 +37°C° 0 mm 3 mps 756 mmHg 41%
    20:00 +34°C° 0 mm 3 mps 757 mmHg 50%
    21:00 +31°C° 0 mm 3 mps 758 mmHg 58%
    22:00 +30°C° 0 mm 3 mps 758 mmHg 63%
    23:00 +29°C° 0 mm 3 mps 758 mmHg 69%

    23 June, Sunday

    Time Temperature Precipitation Wind Pressure Humidity
    00:00 +29°C° 0 mm 2 mps 758 mmHg 74%
    01:00 +28°C° 0 mm 2 mps 758 mmHg 76%
    02:00 +28°C° 0 mm 2 mps 758 mmHg 77%
    03:00 +28°C° 0 mm 2 mps 757 mmHg 79%
    04:00 +28°C° 0 mm 2 mps 757 mmHg 77%
    05:00 +28°C° 0 mm 2 mps 758 mmHg 76%
    06:00 +29°C° 0 mm 2 mps 758 mmHg 75%
    07:00 +30°C° 0 mm 3 mps 758 mmHg 68%
    08:00 +33°C° 0 mm 3 mps 758 mmHg 61%
    09:00 +34°C° 0 mm 3 mps 758 mmHg 54%
    10:00 +37°C° 0 mm 4 mps 758 mmHg 45%
    11:00 +40°C° 0 mm 4 mps 757 mmHg 36%
    12:00 +43°C° 0 mm 5 mps 757 mmHg 27%
    13:00 +43°C° 0 mm 5 mps 756 mmHg 25%
    14:00 +43°C° 0 mm 5 mps 756 mmHg 24%
    15:00 +43°C° 0 mm 5 mps 755 mmHg 22%
    16:00 +42°C° 0 mm 4 mps 755 mmHg 24%
    17:00 +41°C° 0 mm 4 mps 755 mmHg 26%
    18:00 +38°C° 0 mm 4 mps 755 mmHg 28%
    19:00 +36°C° 0 mm 3 mps 756 mmHg 34%
    20:00 +34°C° 0 mm 3 mps 757 mmHg 40%
    21:00 +31°C° 0 mm 3 mps 757 mmHg 46%
    22:00 +30°C° 0 mm 3 mps 757 mmHg 54%
    23:00 +29°C° 0 mm 3 mps 757 mmHg 62%
    Show more